Location: Ago
(8.4667°N, 4.4167°E)
Time: 07:50:21
(UTC+00:00)

Meteor 1-4 Rocket - Pass Details

Date: 06 June 2020
Orbit: 450 x 501 km, 81.2° (Epoch: 05 July)

Event Time Altitude Azimuth Distance (km) Brightness Sun altitude
Rises 18:35:54 0° 187° (S) 2,452 6.0 -9.1°
Reaches altitude 10° 18:37:58 10° 189° (S) 1,577 5.0 -9.6°
Maximum altitude 18:41:24 77° 276° (W) 463 2.5 -10.4°
Drops below altitude 10° 18:44:49 10° 2° (N) 1,573 5.5 -11.1°
Sets 18:46:53 0° 3° (N) 2,446 6.4 -11.6°
